[[{"header":{"parameterUnit":"m.s-1","parameterCategory":1,"la1":30.2991,"la2":30.254,"lo1":-89.0895,"lo2":-89.0444,"dy":0.0017,"dx":0.0017,"nx":28,"ny":28,"refTime":"2025-07-15T21:00:00:Z","depth":0,"parameterNumber":2,"parameterNumberName":"U-component_of_WINDS"},"data":[0,0,0,0,0,0,0,0,0,0,0,0,0,0,0,0,0,0,0,0,0,0,0,0,0,0,0,0,0,0,0,0,0,0,0,0,0,0,0,0,0,0,0,0,0,0,0,0,0,0,0,0,0,0,0,0,0,0,1.1695,1.1695,0,1.1678,1.1678,1.1678,1.1619,1.1617,1.1616,1.1615,1.1599,1.16,1.1601,0,0,0,0,0,0,0,0,0,0,0,0,0,1.168,1.168,1.1695,1.1695,1.1695,1.1678,1.1678,1.1678,1.1619,1.1617,1.1616,1.1614,1.1599,1.16,1.1601,0,0,0,0,0,0,0,0,0,0,0,0,0,1.1677,1.1681,1.1696,1.1664,1.1661,1.1678,1.1678,1.1678,1.1619,1.1617,1.1615,1.1613,1.1598,1.16,1.1601,1.1648,0,0,1.1605,1.1605,0,0,0,0,0,0,0,0,1.1677,1.1678,1.1669,1.1666,1.1663,1.1648,1.1667,1.1668,1.162,1.1635,1.1615,1.1612,1.1617,1.1617,1.1618,1.1648,1.1647,1.1605,1.1605,1.1606,1.1606,0,0,0,0,0,0,0,1.1678,1.1678,1.1689,1.1669,1.1665,1.1651,1.1648,1.1667,1.1638,1.1634,1.1629,1.1628,1.1615,1.1617,1.1617,1.1647,1.1605,1.1606,1.1607,1.1607,1.1716,1.1718,0,0,0,0,0,0,1.1682,1.1679,1.1689,1.1688,1.1665,1.1653,1.165,1.1655,1.1637,1.1633,1.163,1.1625,1.1616,1.1616,1.1616,1.1672,1.1606,1.1607,1.1608,1.1713,1.1716,1.1718,0,0,0,0,0,0,1.1682,1.1684,1.169,1.1682,1.1682,1.1655,1.1662,1.1656,1.1657,1.1634,1.1629,1.1637,1.1614,1.1615,1.1641,1.167,1.1608,1.1609,1.1711,1.1714,1.1717,1.1782,0,0,0,0,0,0,1.1682,1.1684,1.1701,1.1683,1.1683,1.1714,1.1663,1.1657,1.1659,1.1654,1.1639,1.1635,1.1613,1.1639,1.1642,1.1671,1.161,1.1708,1.1712,1.1716,1.1777,1.1787,1.1796,0,0,0,0,0,1.1681,1.172,1.1702,1.1704,1.1704,1.1716,1.1716,1.1689,1.1662,1.168,1.1665,1.1636,1.1666,1.1643,1.1645,1.1675,1.1706,1.1711,1.1716,1.1773,1.1785,1.1795,0,0,0,0,0,0,1.1743,1.1717,1.1697,1.1731,1.1726,1.1706,1.1727,1.1702,1.1705,1.17,1.1666,1.1664,1.1695,1.1687,1.1661,1.172,1.1682,1.1687,1.1724,1.1735,1.1744,1.1746,1.1611,0,0,0,0,0,1.176,1.1772,1.1749,1.1782,1.178,1.1754,1.1759,1.1738,1.1732,1.173,1.1717,1.1713,1.1721,1.1728,1.1734,1.1776,1.1772,1.1797,1.1806,1.1814,1.182,1.1842,1.1853,1.1734,1.1734,1.1734,0,0,1.1797,1.1784,1.1794,1.1794,1.1787,1.1801,1.1753,1.1769,1.1779,1.1732,1.1757,1.1747,1.174,1.1774,1.1789,1.1769,1.1852,1.182,1.1827,1.1828,1.1848,1.1859,1.1869,1.1738,1.1737,1.1736,0,0,1.187,1.1861,1.1888,1.1882,1.1873,1.1856,1.1863,1.1846,1.1838,1.1862,1.1827,1.1839,1.1854,1.1851,1.1852,1.1924,1.1898,1.1928,1.1976,1.1998,1.2007,1.2015,1.2042,1.2052,1.1933,1.1933,1.1933,0,1.1917,1.1935,1.1905,1.1923,1.1925,1.1882,1.191,1.1906,1.19,1.1903,1.188,1.1899,1.1891,1.1925,1.1943,1.1944,1.1951,1.1929,1.2008,1.2016,1.2023,1.2048,1.2059,1.1937,1.1936,1.1936,1.1936,0,1.1993,1.2007,1.2029,1.2024,1.2028,1.2051,1.2025,1.2032,1.2012,1.1997,1.2022,1.2012,1.2016,1.2022,1.2002,1.2053,1.2041,1.2014,1.1974,1.2039,1.2062,1.2071,1.1942,1.1941,1.194,1.1939,0,0,1.2105,1.2083,1.2092,1.2089,1.2077,1.2087,1.2108,1.2112,1.212,1.2117,1.2135,1.2149,1.2124,1.2125,1.2104,1.2123,1.2183,1.2094,1.2093,1.2111,1.2239,1.226,1.2272,1.2165,1.2167,1.2168,1.224,0,1.2175,1.221,1.2183,1.2223,1.2236,1.2196,1.2215,1.2209,1.2197,1.2206,1.2192,1.2203,1.2168,1.2169,1.2186,1.2172,1.2208,1.2166,1.2182,1.2183,1.2186,1.2284,1.2306,1.2374,1.2249,1.225,1.2251,0,1.2262,1.2263,1.2304,1.2289,1.2294,1.2311,1.2312,1.2321,1.2315,1.2304,1.2305,1.228,1.2301,1.2262,1.229,1.2262,1.2267,1.2262,1.2264,1.2265,1.2222,1.2288,1.2395,1.2406,1.2265,1.2264,1.2263,0,1.2341,1.2352,1.2378,1.2377,1.2361,1.2374,1.2368,1.2359,1.2363,1.2365,1.2367,1.2371,1.2374,1.2378,1.2355,1.2329,1.2387,1.2346,1.238,1.2381,1.2394,1.2394,1.2505,1.2397,1.2396,1.2396,1.2396,0,1.2422,1.2449,1.2414,1.243,1.2459,1.2428,1.2458,1.2448,1.2441,1.2455,1.2421,1.2435,1.2403,1.2414,1.2396,1.2423,1.2425,1.2417,1.2412,1.2421,1.2422,1.2424,1.2419,1.2399,1.2398,1.2398,1.2397,0,1.2515,1.2492,1.2518,1.25,1.2496,1.2519,1.2504,1.2518,1.2503,1.2522,1.2524,1.2501,1.2512,1.2489,1.2497,1.2485,1.2524,1.2511,1.2526,1.2522,1.2558,1.2555,1.2674,1.2689,1.2571,1.2572,1.2573,0,1.257,1.2589,1.2573,1.258,1.2575,1.2587,1.2591,1.2562,1.2567,1.2562,1.2578,1.2586,1.2591,1.2611,1.2595,1.2602,1.2589,1.2631,1.259,1.2598,1.2591,1.2591,1.2593,1.2639,1.2641,1.2642,1.2643,0,1.2668,1.2656,1.2663,1.2666,1.2671,1.2673,1.2671,1.2679,1.2648,1.2657,1.2667,1.2672,1.268,1.2689,1.2692,1.2686,1.266,1.2656,1.2664,1.2673,1.2681,1.2678,1.2549,1.2653,1.2652,1.2651,1.2651,1.2651,1.2744,1.276,1.2751,1.276,1.2756,1.2756,1.2769,1.2755,1.2764,1.2768,1.275,1.2766,1.2759,1.276,1.2757,1.2769,1.2751,1.2763,1.2766,1.2769,1.2775,1.2679,1.277,1.2769,1.2769,1.2769,1.2768,0,1.2842,1.2834,1.2843,1.2842,1.2849,1.2823,1.282,1.2829,1.2842,1.2838,1.2844,1.2857,1.2866,1.2851,1.2857,1.287,1.2858,1.2873,1.2872,1.2871,1.2791,1.2784,1.2882,1.2882,1.2882,1.2882,1.2882,1.2882,1.2894,1.2919,1.2906,1.293,1.2922,1.2937,1.2937,1.2937,1.2934,1.295,1.2957,1.2947,1.2939,1.2944,1.2952,1.2947,1.2951,1.297,1.2962,1.2888,1.2877,1.2866,1.2859,1.2971,1.2971,1.3041,1.3041,1.3042]},{"header":{"parameterUnit":"m.s-1","parameterCategory":1,"la1":30.2991,"la2":30.254,"lo1":-89.0895,"lo2":-89.0444,"dy":0.0017,"dx":0.0017,"nx":28,"ny":28,"refTime":"2025-07-15T21:00:00:Z","depth":0,"parameterNumber":3,"parameterNumberName":"V-component_of_WINDS"},"data":[0,0,0,0,0,0,0,0,0,0,0,0,0,0,0,0,0,0,0,0,0,0,0,0,0,0,0,0,0,0,0,0,0,0,0,0,0,0,0,0,0,0,0,0,0,0,0,0,0,0,0,0,0,0,0,0,0,0,-2.5838,-2.5838,0,-2.5851,-2.5852,-2.5852,-2.5847,-2.5847,-2.5846,-2.5846,-2.5858,-2.5859,-2.5859,0,0,0,0,0,0,0,0,0,0,0,0,0,-2.581,-2.581,-2.5838,-2.5838,-2.5838,-2.5851,-2.5852,-2.5852,-2.5847,-2.5847,-2.5846,-2.5846,-2.5858,-2.5859,-2.5859,0,0,0,0,0,0,0,0,0,0,0,0,0,-2.5822,-2.581,-2.5838,-2.5838,-2.5838,-2.5851,-2.5852,-2.5852,-2.5847,-2.5847,-2.5846,-2.5846,-2.5858,-2.5859,-2.5859,-2.5874,0,0,-2.5862,-2.5863,0,0,0,0,0,0,0,0,-2.5821,-2.5823,-2.5838,-2.5838,-2.5838,-2.5847,-2.5846,-2.5859,-2.5847,-2.5844,-2.5846,-2.5846,-2.5855,-2.5856,-2.5859,-2.5874,-2.5875,-2.5862,-2.5863,-2.5863,-2.5863,0,0,0,0,0,0,0,-2.5821,-2.5823,-2.5843,-2.5838,-2.5838,-2.5837,-2.5839,-2.5848,-2.5851,-2.5844,-2.5844,-2.5845,-2.5855,-2.5858,-2.5859,-2.5875,-2.5862,-2.5863,-2.5864,-2.5864,-2.5905,-2.5906,0,0,0,0,0,0,-2.582,-2.5822,-2.5843,-2.5844,-2.5829,-2.5838,-2.584,-2.5845,-2.5851,-2.5852,-2.5846,-2.5845,-2.5857,-2.5858,-2.586,-2.5879,-2.5863,-2.5864,-2.5864,-2.5905,-2.5905,-2.5906,0,0,0,0,0,0,-2.5819,-2.5822,-2.5842,-2.5833,-2.5835,-2.5839,-2.5845,-2.5845,-2.5849,-2.5853,-2.5853,-2.5849,-2.5857,-2.5859,-2.5871,-2.5879,-2.5864,-2.5865,-2.5904,-2.5905,-2.5906,-2.5916,0,0,0,0,0,0,-2.5818,-2.5821,-2.5826,-2.5833,-2.5836,-2.5853,-2.5845,-2.5846,-2.585,-2.585,-2.5856,-2.5856,-2.5857,-2.587,-2.5872,-2.588,-2.5866,-2.5903,-2.5904,-2.5905,-2.5915,-2.5917,-2.5919,0,0,0,0,0,-2.5817,-2.5828,-2.5827,-2.5829,-2.5842,-2.5853,-2.5855,-2.5856,-2.5851,-2.5857,-2.586,-2.5856,-2.5878,-2.5871,-2.5873,-2.5882,-2.5903,-2.5904,-2.5905,-2.5914,-2.5916,-2.5919,0,0,0,0,0,0,-2.582,-2.5828,-2.5827,-2.584,-2.5846,-2.5853,-2.5859,-2.5858,-2.5865,-2.5864,-2.5864,-2.5866,-2.5879,-2.5882,-2.5874,-2.5898,-2.589,-2.5892,-2.5895,-2.5898,-2.59,-2.5899,-2.5867,0,0,0,0,0,-2.5823,-2.5832,-2.5838,-2.5849,-2.5852,-2.5855,-2.586,-2.586,-2.5867,-2.5869,-2.5873,-2.5879,-2.5887,-2.5893,-2.59,-2.5915,-2.5918,-2.5923,-2.5925,-2.5926,-2.5928,-2.5939,-2.5942,-2.591,-2.591,-2.591,0,0,-2.5827,-2.5833,-2.5838,-2.5849,-2.5854,-2.5864,-2.5857,-2.5867,-2.5874,-2.587,-2.5883,-2.5886,-2.5893,-2.5907,-2.5914,-2.591,-2.5937,-2.5928,-2.5929,-2.593,-2.594,-2.5943,-2.5946,-2.5911,-2.5911,-2.5911,0,0,-2.5841,-2.5845,-2.5856,-2.5862,-2.587,-2.5873,-2.5875,-2.5883,-2.5885,-2.5898,-2.5896,-2.5905,-2.5919,-2.5925,-2.593,-2.5949,-2.5947,-2.5952,-2.5962,-2.5973,-2.5975,-2.5977,-2.5986,-2.5989,-2.5953,-2.5953,-2.5953,0,-2.5845,-2.586,-2.5861,-2.5872,-2.5878,-2.5877,-2.5888,-2.5894,-2.5904,-2.5908,-2.5904,-2.5924,-2.5928,-2.5945,-2.595,-2.5953,-2.5958,-2.5951,-2.5975,-2.5977,-2.5979,-2.5987,-2.5991,-2.5954,-2.5954,-2.5954,-2.5954,0,-2.5866,-2.5876,-2.5884,-2.5895,-2.5902,-2.5913,-2.5917,-2.5924,-2.5925,-2.5928,-2.5943,-2.5949,-2.5959,-2.5963,-2.5962,-2.5981,-2.5979,-2.5974,-2.5967,-2.5983,-2.5991,-2.5994,-2.5955,-2.5954,-2.5954,-2.5954,0,0,-2.5879,-2.5894,-2.5897,-2.5904,-2.5914,-2.5922,-2.5934,-2.5946,-2.5953,-2.596,-2.5971,-2.5985,-2.5982,-2.5988,-2.5988,-2.5997,-2.6016,-2.5993,-2.5993,-2.5998,-2.6039,-2.6043,-2.6046,-2.6014,-2.6015,-2.6015,-2.6039,0,-2.5895,-2.5916,-2.592,-2.5939,-2.595,-2.595,-2.5961,-2.5969,-2.5974,-2.5984,-2.5988,-2.5999,-2.5993,-2.5997,-2.6006,-2.6011,-2.6024,-2.601,-2.6025,-2.6026,-2.6025,-2.605,-2.6053,-2.6075,-2.6042,-2.6042,-2.6043,0,-2.5915,-2.5925,-2.5946,-2.5958,-2.5963,-2.5973,-2.5985,-2.5994,-2.6004,-2.6007,-2.6015,-2.6016,-2.6029,-2.6021,-2.6041,-2.6031,-2.6038,-2.6042,-2.6043,-2.6045,-2.6036,-2.6054,-2.6082,-2.6086,-2.6047,-2.6047,-2.6047,0,-2.5925,-2.5944,-2.596,-2.5965,-2.5979,-2.5986,-2.5993,-2.6002,-2.601,-2.6021,-2.6026,-2.6038,-2.6045,-2.6054,-2.6059,-2.6052,-2.6079,-2.6071,-2.6083,-2.6083,-2.6088,-2.6088,-2.6119,-2.6091,-2.6091,-2.6091,-2.6091,0,-2.5942,-2.5955,-2.5965,-2.5975,-2.599,-2.5995,-2.601,-2.6016,-2.6026,-2.6037,-2.6038,-2.6049,-2.6053,-2.6065,-2.6069,-2.6086,-2.6089,-2.6092,-2.6093,-2.6093,-2.6092,-2.6097,-2.6096,-2.6092,-2.6092,-2.6092,-2.6091,0,-2.5955,-2.5962,-2.598,-2.5993,-2.5997,-2.6008,-2.6019,-2.6029,-2.6035,-2.605,-2.6053,-2.6062,-2.6077,-2.6082,-2.6099,-2.6102,-2.6122,-2.6121,-2.6119,-2.612,-2.6132,-2.6132,-2.6168,-2.6175,-2.6141,-2.6142,-2.6142,0,-2.5966,-2.5976,-2.5992,-2.6,-2.6007,-2.602,-2.6029,-2.6035,-2.6044,-2.6059,-2.6067,-2.6082,-2.6095,-2.6118,-2.6126,-2.614,-2.614,-2.6152,-2.6142,-2.6142,-2.6142,-2.6142,-2.6144,-2.6154,-2.6154,-2.6155,-2.6155,0,-2.5984,-2.5988,-2.6001,-2.6016,-2.6027,-2.6039,-2.6051,-2.6058,-2.6066,-2.6076,-2.6092,-2.6102,-2.6121,-2.6137,-2.6152,-2.6158,-2.6159,-2.6158,-2.6162,-2.6162,-2.6161,-2.6164,-2.6126,-2.6157,-2.6157,-2.6157,-2.6157,-2.6157,-2.5997,-2.6008,-2.6022,-2.6037,-2.6047,-2.6059,-2.607,-2.6078,-2.6092,-2.6109,-2.6111,-2.6129,-2.6142,-2.6163,-2.617,-2.6185,-2.6182,-2.6187,-2.6188,-2.619,-2.6192,-2.6159,-2.6187,-2.6187,-2.6187,-2.6187,-2.6187,0,-2.6017,-2.6027,-2.6041,-2.6059,-2.6072,-2.6072,-2.6086,-2.6097,-2.6112,-2.6125,-2.6138,-2.6158,-2.6174,-2.6184,-2.6201,-2.6211,-2.6211,-2.6215,-2.6215,-2.6217,-2.6192,-2.6188,-2.6214,-2.6214,-2.6214,-2.6214,-2.6214,-2.6214,-2.6029,-2.6048,-2.6055,-2.6079,-2.6089,-2.6107,-2.6116,-2.6127,-2.6138,-2.616,-2.6174,-2.6181,-2.6194,-2.6212,-2.6227,-2.623,-2.6237,-2.6241,-2.6244,-2.6221,-2.6218,-2.6215,-2.6211,-2.6242,-2.6242,-2.6267,-2.6267,-2.6267]}]]